| time (UTC) | temp F | wind direction | speed MPH | gust MPH | rain 1hr in | rain 24hr in | rain mn in | humidity % | barometer mb |
| 20260508233031 | 67 | 269 | 11.0 | 14.0 | 0.00 | 0.00 | 0.00 | 28 | 1006.4 |
| 20260508231526 | 66 | 46 | 2.0 | 15.0 | 0.00 | 0.00 | 0.00 | 28 | 1006.5 |
| 20260508230036 | 65 | 248 | 8.0 | 10.0 | 0.00 | 0.00 | 0.00 | 29 | 1006.7 |
| 20260508224531 | 65 | 252 | 7.0 | 13.0 | 0.00 | 0.00 | 0.00 | 28 | 1006.9 |
| 20260508223016 | 66 | 311 | 8.0 | 14.0 | 0.00 | 0.01 | 0.00 | 27 | 1007.1 |
| 20260508221525 | 66 | 239 | 9.0 | 13.0 | 0.00 | 0.01 | 0.00 | 27 | 1007.4 |
| 20260508220008 | 66 | 288 | 9.0 | 13.0 | 0.00 | 0.01 | 0.00 | 28 | 1007.5 |
| 20260508214502 | 66 | 255 | 7.0 | 11.0 | 0.00 | 0.01 | 0.00 | 28 | 1007.8 |
| 20260508213057 | 64 | 248 | 7.0 | 14.0 | 0.00 | 0.01 | 0.00 | 28 | 1008.1 |
| 20260508211553 | 65 | 257 | 11.0 | 14.0 | 0.00 | 0.01 | 0.00 | 28 | 1008.3 |
| 20260508210049 | 66 | 256 | 7.0 | 12.0 | 0.00 | 0.01 | 0.00 | 28 | 1008.5 |
| 20260508204543 | 65 | 240 | 12.0 | 16.0 | 0.00 | 0.01 | 0.00 | 28 | 1008.9 |
| 20260508203042 | 65 | 290 | 9.0 | 15.0 | 0.00 | 0.02 | 0.00 | 28 | 1009.0 |
| 20260508201535 | 65 | 309 | 3.0 | 12.0 | 0.00 | 0.02 | 0.00 | 29 | 1009.1 |
| 20260508200033 | 64 | 257 | 8.0 | 13.0 | 0.00 | 0.02 | 0.00 | 28 | 1009.5 |
| 20260508194526 | 64 | 293 | 8.0 | 16.0 | 0.00 | 0.02 | 0.00 | 30 | 1009.7 |
| 20260508193024 | 64 | 320 | 11.0 | 14.0 | 0.00 | 0.03 | 0.00 | 27 | 1010.0 |
| 20260508191556 | 63 | 297 | 9.0 | 16.0 | 0.00 | 0.03 | 0.00 | 30 | 1010.1 |
| 20260508190049 | 63 | 295 | 6.0 | 15.0 | 0.00 | 0.03 | 0.00 | 32 | 1010.2 |
| 20260508184542 | 62 | 291 | 10.0 | 15.0 | 0.00 | 0.03 | 0.00 | 32 | 1010.4 |
| 20260508183040 | 62 | 269 | 9.0 | 19.0 | 0.00 | 0.03 | 0.00 | 33 | 1010.4 |
| 20260508181539 | 61 | 356 | 8.0 | 28.0 | 0.00 | 0.03 | 0.00 | 32 | 1010.7 |
| 20260508180036 | 62 | 317 | 10.0 | 16.0 | 0.00 | 0.03 | 0.00 | 30 | 1010.9 |
| 20260508174538 | 61 | 303 | 8.0 | 13.0 | 0.00 | 0.03 | 0.00 | 33 | 1011.0 |
| 20260508173027 | 59 | 308 | 5.0 | 15.0 | 0.00 | 0.03 | 0.00 | 36 | 1011.1 |
| 20260508171526 | 60 | 327 | 7.0 | 15.0 | 0.00 | 0.03 | 0.00 | 35 | 1011.2 |
| 20260508170025 | 60 | 298 | 8.0 | 18.0 | 0.00 | 0.03 | 0.00 | 36 | 1011.3 |
| 20260508164527 | 60 | 300 | 13.0 | 22.0 | 0.00 | 0.03 | 0.00 | 36 | 1011.5 |
| 20260508163017 | 59 | 312 | 10.0 | 16.0 | 0.00 | 0.03 | 0.00 | 38 | 1011.5 |
| 20260508161514 | 59 | 325 | 11.0 | 17.0 | 0.00 | 0.03 | 0.00 | 41 | 1011.5 |
| 20260508160016 | 58 | 277 | 7.0 | 15.0 | 0.00 | 0.03 | 0.00 | 43 | 1011.5 |
| 20260508154507 | 58 | 290 | 8.0 | 16.0 | 0.00 | 0.03 | 0.00 | 44 | 1011.6 |
| 20260508153004 | 57 | 288 | 9.0 | 18.0 | 0.00 | 0.03 | 0.00 | 46 | 1011.7 |
| 20260508151558 | 57 | 250 | 9.0 | 15.0 | 0.00 | 0.03 | 0.00 | 49 | 1011.7 |
| 20260508150055 | 56 | 260 | 8.0 | 16.0 | 0.00 | 0.03 | 0.00 | 50 | 1011.8 |
| 20260508144546 | 56 | 276 | 11.0 | 18.0 | 0.00 | 0.03 | 0.00 | 54 | 1011.7 |
| 20260508143038 | 54 | 290 | 11.0 | 18.0 | 0.00 | 0.03 | 0.00 | 57 | 1011.7 |
| 20260508141532 | 53 | 272 | 12.0 | 16.0 | 0.00 | 0.03 | 0.00 | 58 | 1011.6 |
| 20260508140026 | 53 | 283 | 11.0 | 16.0 | 0.00 | 0.03 | 0.00 | 61 | 1011.5 |
| 20260508134516 | 51 | 283 | 10.0 | 16.0 | 0.00 | 0.03 | 0.00 | 65 | 1011.4 |
| 20260508133007 | 50 | 264 | 9.0 | 13.0 | 0.00 | 0.03 | 0.00 | 69 | 1011.4 |
| 20260508131603 | 49 | 288 | 8.0 | 12.0 | 0.00 | 0.03 | 0.00 | 72 | 1011.3 |
| 20260508130109 | 47 | 271 | 8.0 | 12.0 | 0.00 | 0.03 | 0.00 | 75 | 1011.1 |
| 20260508124519 | 46 | 283 | 8.0 | 12.0 | 0.00 | 0.03 | 0.00 | 77 | 1011.0 |
| 20260508123016 | 44 | 274 | 7.0 | 10.0 | 0.00 | 0.03 | 0.00 | 81 | 1010.8 |
| 20260508121512 | 43 | 252 | 5.0 | 9.0 | 0.00 | 0.03 | 0.00 | 82 | 1010.7 |
| 20260508120010 | 43 | 264 | 5.0 | 9.0 | 0.00 | 0.03 | 0.00 | 81 | 1010.5 |
| 20260508114509 | 43 | 264 | 8.0 | 11.0 | 0.00 | 0.03 | 0.00 | 82 | 1010.5 |
| 20260508113009 | 43 | 264 | 6.0 | 9.0 | 0.00 | 0.03 | 0.00 | 84 | 1010.5 |
| 20260508111513 | 43 | 264 | 7.0 | 11.0 | 0.00 | 0.03 | 0.00 | 84 | 1010.5 |
| 20260508110007 | 43 | 264 | 8.0 | 13.0 | 0.00 | 0.03 | 0.00 | 84 | 1010.5 |
| 20260508104510 | 43 | 269 | 8.0 | 11.0 | 0.00 | 0.03 | 0.00 | 85 | 1010.5 |
| 20260508104507 | 43 | 281 | 8.0 | 11.0 | 0.00 | 0.03 | 0.00 | 85 | 1010.5 |
| 20260508103005 | 43 | 293 | 7.0 | 12.0 | 0.00 | 0.03 | 0.00 | 84 | 1010.4 |
| 20260508101505 | 43 | 264 | 10.0 | 13.0 | 0.00 | 0.03 | 0.00 | 85 | 1010.2 |
| 20260508100003 | 42 | 293 | 8.0 | 12.0 | 0.00 | 0.03 | 0.00 | 85 | 1010.3 |
| 20260508094558 | 42 | 300 | 9.0 | 12.0 | 0.00 | 0.03 | 0.00 | 84 | 1010.1 |
| 20260508093054 | 43 | 272 | 8.0 | 14.0 | 0.00 | 0.03 | 0.00 | 83 | 1010.1 |
| 20260508091545 | 44 | 281 | 10.0 | 14.0 | 0.00 | 0.03 | 0.00 | 82 | 1010.1 |
| 20260508090016 | 44 | 295 | 10.0 | 14.0 | 0.00 | 0.03 | 0.00 | 83 | 1010.2 |
| 20260508084512 | 44 | 284 | 9.0 | 13.0 | 0.00 | 0.03 | 0.00 | 84 | 1010.2 |
| 20260508083005 | 45 | 274 | 11.0 | 15.0 | 0.00 | 0.03 | 0.00 | 83 | 1010.1 |
| 20260508081504 | 45 | 283 | 7.0 | 10.0 | 0.00 | 0.03 | 0.00 | 82 | 1010.2 |
| 20260508080001 | 45 | 269 | 8.0 | 12.0 | 0.00 | 0.03 | 0.00 | 82 | 1010.3 |
| 20260508074558 | 45 | 283 | 7.0 | 13.0 | 0.00 | 0.03 | 0.00 | 82 | 1010.4 |
| 20260508073055 | 45 | 272 | 6.0 | 10.0 | 0.00 | 0.03 | 0.00 | 82 | 1010.3 |
| 20260508071600 | 45 | 296 | 8.0 | 12.0 | 0.00 | 0.03 | 0.00 | 80 | 1010.5 |
| 20260508070137 | 45 | 269 | 8.0 | 11.0 | 0.00 | 0.03 | 0.00 | 80 | 1010.5 |
| 20260508064605 | 45 | 288 | 7.0 | 11.0 | 0.00 | 0.03 | 0.00 | 81 | 1010.5 |
| 20260508063043 | 45 | 281 | 7.0 | 11.0 | 0.00 | 0.03 | 0.00 | 80 | 1010.4 |
| 20260508061539 | 46 | 277 | 7.0 | 11.0 | 0.00 | 0.03 | 0.00 | 79 | 1010.2 |
| 20260508060034 | 46 | 266 | 8.0 | 12.0 | 0.00 | 0.03 | 0.00 | 80 | 1010.0 |
| 20260508054530 | 46 | 307 | 4.0 | 9.0 | 0.00 | 0.03 | 0.00 | 79 | 1010.1 |
| 20260508053024 | 48 | 298 | 6.0 | 10.0 | 0.00 | 0.03 | 0.03 | 75 | 1009.9 |
| 20260508051526 | 49 | 283 | 8.0 | 13.0 | 0.00 | 0.03 | 0.03 | 74 | 1009.9 |
| 20260508050023 | 48 | 265 | 7.0 | 11.0 | 0.00 | 0.03 | 0.03 | 75 | 1010.0 |
| 20260508044523 | 49 | 260 | 5.0 | 9.0 | 0.00 | 0.03 | 0.03 | 73 | 1010.0 |
| 20260508043039 | 48 | 277 | 7.0 | 10.0 | 0.00 | 0.03 | 0.03 | 74 | 1010.1 |
| 20260508041519 | 48 | 285 | 6.0 | 10.0 | 0.00 | 0.03 | 0.03 | 75 | 1010.3 |
| 20260508040023 | 47 | 286 | 4.0 | 8.0 | 0.00 | 0.03 | 0.03 | 77 | 1010.2 |
| 20260508034520 | 46 | 281 | 3.0 | 5.0 | 0.00 | 0.03 | 0.03 | 77 | 1010.3 |
| 20260508033016 | 47 | 295 | 4.0 | 6.0 | 0.00 | 0.03 | 0.03 | 77 | 1010.1 |
| 20260508031521 | 47 | 284 | 4.0 | 6.0 | 0.00 | 0.03 | 0.03 | 77 | 1010.0 |
| 20260508030018 | 46 | 285 | 3.0 | 6.0 | 0.00 | 0.03 | 0.03 | 77 | 1009.6 |
| 20260508024514 | 46 | 302 | 3.0 | 5.0 | 0.00 | 0.03 | 0.03 | 75 | 1009.3 |
| 20260508023016 | 47 | 293 | 4.0 | 6.0 | 0.00 | 0.03 | 0.03 | 72 | 1009.1 |
| 20260508021510 | 49 | 298 | 4.0 | 6.0 | 0.00 | 0.03 | 0.03 | 68 | 1008.8 |
| 20260508020008 | 51 | 321 | 4.0 | 7.0 | 0.00 | 0.03 | 0.03 | 67 | 1008.6 |
| 20260508014512 | 52 | 331 | 3.0 | 6.0 | 0.00 | 0.03 | 0.03 | 66 | 1008.5 |
| 20260508013037 | 52 | 347 | 3.0 | 5.0 | 0.00 | 0.03 | 0.03 | 66 | 1008.4 |
| 20260508011539 | 52 | 335 | 2.0 | 6.0 | 0.00 | 0.03 | 0.03 | 65 | 1008.4 |
| 20260508010008 | 53 | 354 | 4.0 | 9.0 | 0.00 | 0.03 | 0.03 | 64 | 1008.2 |
| 20260508004507 | 53 | 343 | 8.0 | 12.0 | 0.00 | 0.03 | 0.03 | 63 | 1008.3 |
| 20260508003104 | 54 | 318 | 6.0 | 11.0 | 0.00 | 0.03 | 0.03 | 62 | 1008.4 |
| 20260508001503 | 53 | 336 | 9.0 | 13.0 | 0.00 | 0.03 | 0.03 | 64 | 1008.3 |
| 20260508000001 | 52 | 349 | 8.0 | 17.0 | 0.00 | 0.03 | 0.03 | 64 | 1008.2 |
| 20260507234501 | 52 | 14 | 7.0 | 15.0 | 0.00 | 0.03 | 0.03 | 64 | 1008.3 |